Location: Altenst�hlen
(53.5567°N, 8.9425°E)
Time: 12:56:30
(UTC+00:00)

FengYun 1-2 T - Pass Details

Date: 23 October 2019
Orbit: 846 x 882 km, 98.7° (Epoch: 16 November)

Event Time Altitude Azimuth Distance (km) Brightness Sun altitude
Rises 16:46:40 0° 146° (SE) 3,461 7.1 -6.0°
Reaches altitude 10° 16:49:06 10° 142° (SE) 2,522 6.4 -6.3°
Maximum altitude 16:54:32 54° 66° (ENE) 1,049 4.4 -7.1°
Drops below altitude 10° 16:59:58 10° 351° (N) 2,515 6.7 -7.9°
Sets 17:02:23 0° 347° (NNW) 3,450 7.5 -8.3°
